Time,TemperatureF,DewpointF,PressureIn,WindDirection,WindDirectionDegrees,WindSpeedMPH,WindSpeedGustMPH,Humidity,HourlyPrecipIn,Conditions,Clouds,dailyrainin,SoftwareType,DateUTC
2013-07-15 00:01:00,74.0,-99.9,30.21,WSW,249,7.0,10.0,-999,-99.99,,,-99.99,,2013-07-15 04:01:00,
2013-07-15 00:12:00,74.0,-99.9,30.21,WSW,252,5.0,9.0,-999,-99.99,,,-99.99,,2013-07-15 04:12:00,
2013-07-15 00:33:00,74.0,-99.9,30.21,WSW,249,7.0,10.0,-999,-99.99,,,-99.99,,2013-07-15 04:33:00,
2013-07-15 00:42:00,74.0,-99.9,30.20,WSW,251,6.0,12.0,-999,-99.99,,,-99.99,,2013-07-15 04:42:00,
2013-07-15 00:54:00,74.0,-99.9,30.20,WSW,255,7.0,10.0,-999,-99.99,,,-99.99,,2013-07-15 04:54:00,
2013-07-15 01:02:00,73.0,-99.9,30.20,WSW,250,7.0,9.0,-999,-99.99,,,-99.99,,2013-07-15 05:02:00,
2013-07-15 01:12:00,73.0,-99.9,30.20,WSW,254,7.0,10.0,-999,-99.99,,,-99.99,,2013-07-15 05:12:00,
2013-07-15 01:32:00,73.0,-99.9,30.19,WSW,252,6.0,11.0,-999,-99.99,,,-99.99,,2013-07-15 05:32:00,
2013-07-15 01:43:00,73.0,-99.9,30.19,WSW,253,6.0,11.0,-999,-99.99,,,-99.99,,2013-07-15 05:43:00,
2013-07-15 01:53:00,73.0,-99.9,30.19,WSW,254,6.0,8.0,-999,-99.99,,,-99.99,,2013-07-15 05:53:00,
2013-07-15 02:02:00,73.0,-99.9,30.19,WSW,255,7.0,10.0,-999,-99.99,,,-99.99,,2013-07-15 06:02:00,
2013-07-15 02:12:00,73.0,-99.9,30.19,WSW,254,6.0,11.0,-999,-99.99,,,-99.99,,2013-07-15 06:12:00,
2013-07-15 02:32:00,74.0,-99.9,30.19,WSW,257,6.0,9.0,-999,-99.99,,,-99.99,,2013-07-15 06:32:00,
2013-07-15 02:42:00,74.0,-99.9,30.19,WSW,257,7.0,9.0,-999,-99.99,,,-99.99,,2013-07-15 06:42:00,
2013-07-15 02:53:00,74.0,-99.9,30.18,West,262,6.0,10.0,-999,-99.99,,,-99.99,,2013-07-15 06:53:00,
2013-07-15 03:01:00,74.0,-99.9,30.18,West,261,6.0,9.0,-999,-99.99,,,-99.99,,2013-07-15 07:01:00,
2013-07-15 03:11:00,73.0,-99.9,30.18,WSW,258,5.0,9.0,-999,-99.99,,,-99.99,,2013-07-15 07:11:00,
2013-07-15 03:33:00,73.0,-99.9,30.18,West,265,5.0,8.0,-999,-99.99,,,-99.99,,2013-07-15 07:33:00,
2013-07-15 03:44:00,73.0,-99.9,30.18,West,265,3.0,9.0,-999,-99.99,,,-99.99,,2013-07-15 07:44:00,
2013-07-15 03:53:00,73.0,-99.9,30.18,West,265,2.0,6.0,-999,-99.99,,,-99.99,,2013-07-15 07:53:00,
2013-07-15 04:02:00,73.0,-99.9,30.17,WNW,288,4.0,6.0,-999,-99.99,,,-99.99,,2013-07-15 08:02:00,
2013-07-15 04:32:00,74.0,-99.9,30.18,WNW,299,2.0,4.0,-999,-99.99,,,-99.99,,2013-07-15 08:32:00,
2013-07-15 04:44:00,73.0,-99.9,30.18,West,271,1.0,3.0,-999,-99.99,,,-99.99,,2013-07-15 08:44:00,
2013-07-15 04:53:00,73.0,-99.9,30.17,West,277,1.0,2.0,-999,-99.99,,,-99.99,,2013-07-15 08:53:00,
2013-07-15 05:02:00,73.0,-99.9,30.17,West,273,2.0,3.0,-999,-99.99,,,-99.99,,2013-07-15 09:02:00,
2013-07-15 05:12:00,73.0,-99.9,30.18,WSW,255,2.0,5.0,-999,-99.99,,,-99.99,,2013-07-15 09:12:00,
2013-07-15 05:32:00,72.0,-99.9,30.18,WSW,253,4.0,5.0,-999,-99.99,,,-99.99,,2013-07-15 09:32:00,
2013-07-15 05:43:00,72.0,-99.9,30.18,West,261,3.0,5.0,-999,-99.99,,,-99.99,,2013-07-15 09:43:00,
2013-07-15 05:53:00,72.0,-99.9,30.18,West,260,3.0,5.0,-999,-99.99,,,-99.99,,2013-07-15 09:53:00,
2013-07-15 06:02:00,72.0,-99.9,30.18,West,265,2.0,4.0,-999,-99.99,,,-99.99,,2013-07-15 10:02:00,
2013-07-15 06:11:00,72.0,-99.9,30.18,WSW,258,1.0,4.0,-999,-99.99,,,-99.99,,2013-07-15 10:11:00,
2013-07-15 06:32:00,73.0,-99.9,30.18,WNW,300,2.0,3.0,-999,-99.99,,,-99.99,,2013-07-15 10:32:00,
2013-07-15 06:43:00,74.0,-99.9,30.18,WNW,288,2.0,3.0,-999,-99.99,,,-99.99,,2013-07-15 10:43:00,
2013-07-15 06:53:00,75.0,-99.9,30.19,WNW,292,2.0,4.0,-999,-99.99,,,-99.99,,2013-07-15 10:53:00,
2013-07-15 07:02:00,75.0,-99.9,30.19,NNW,331,3.0,4.0,-999,-99.99,,,-99.99,,2013-07-15 11:02:00,
2013-07-15 07:11:00,76.0,-99.9,30.19,NNW,337,2.0,4.0,-999,-99.99,,,-99.99,,2013-07-15 11:11:00,
2013-07-15 07:32:00,76.0,-99.9,30.19,NW,322,4.0,6.0,-999,-99.99,,,-99.99,,2013-07-15 11:32:00,
2013-07-15 07:42:00,78.0,-99.9,30.19,North,355,3.0,4.0,-999,-99.99,,,-99.99,,2013-07-15 11:42:00,
2013-07-15 07:52:00,78.0,-99.9,30.19,North,352,4.0,5.0,-999,-99.99,,,-99.99,,2013-07-15 11:52:00,
2013-07-15 08:01:00,78.0,-99.9,30.19,NNW,337,4.0,5.0,-999,-99.99,,,-99.99,,2013-07-15 12:01:00,
2013-07-15 08:11:00,78.0,-99.9,30.19,NNW,329,3.0,5.0,-999,-99.99,,,-99.99,,2013-07-15 12:11:00,
2013-07-15 08:33:00,78.0,-99.9,30.19,NW,305,2.0,4.0,-999,-99.99,,,-99.99,,2013-07-15 12:33:00,
2013-07-15 08:42:00,78.0,-99.9,30.19,North,353,2.0,3.0,-999,-99.99,,,-99.99,,2013-07-15 12:42:00,
2013-07-15 08:53:00,80.0,-99.9,30.19,North,6,3.0,4.0,-999,-99.99,,,-99.99,,2013-07-15 12:53:00,
2013-07-15 09:02:00,81.0,-99.9,30.19,NNE,30,2.0,3.0,-999,-99.99,,,-99.99,,2013-07-15 13:02:00,
2013-07-15 09:11:00,81.0,-99.9,30.18,North,8,3.0,4.0,-999,-99.99,,,-99.99,,2013-07-15 13:11:00,
2013-07-15 09:43:00,83.0,-99.9,30.18,NNE,26,3.0,4.0,-999,-99.99,,,-99.99,,2013-07-15 13:43:00,
2013-07-15 10:02:00,82.0,-99.9,30.18,NNE,26,2.0,4.0,-999,-99.99,,,-99.99,,2013-07-15 14:02:00,
2013-07-15 10:33:00,82.0,-99.9,30.18,NE,42,3.0,4.0,-999,-99.99,,,-99.99,,2013-07-15 14:33:00,
2013-07-15 11:42:00,84.0,-99.9,30.17,NNE,28,3.0,5.0,-999,-99.99,,,-99.99,,2013-07-15 15:42:00,
2013-07-15 11:50:00,84.0,-99.9,30.17,NNE,29,3.0,5.0,-999,-99.99,,,-99.99,,2013-07-15 15:50:00,
2013-07-15 12:08:00,83.0,-99.9,30.17,NE,40,3.0,5.0,-999,-99.99,,,-99.99,,2013-07-15 16:08:00,
2013-07-15 12:50:00,85.0,-99.9,30.16,NNW,345,2.0,4.0,-999,-99.99,,,-99.99,,2013-07-15 16:50:00,
2013-07-15 13:13:00,83.0,-99.9,30.16,NNE,15,3.0,5.0,-999,-99.99,,,-99.99,,2013-07-15 17:13:00,
2013-07-15 13:23:00,83.0,-99.9,30.16,North,4,5.0,5.0,-999,-99.99,,,-99.99,,2013-07-15 17:23:00,
2013-07-15 14:40:00,84.0,-99.9,30.15,NNE,14,5.0,8.0,-999,-99.99,,,-99.99,,2013-07-15 18:40:00,
2013-07-15 14:59:00,82.0,-99.9,30.15,East,92,5.0,7.0,-999,-99.99,,,-99.99,,2013-07-15 18:59:00,
2013-07-15 15:05:00,83.0,-99.9,30.15,ENE,74,3.0,5.0,-999,-99.99,,,-99.99,,2013-07-15 19:05:00,
2013-07-15 15:12:00,83.0,-99.9,30.15,ENE,74,3.0,5.0,-999,-99.99,,,-99.99,,2013-07-15 19:12:00,
2013-07-15 15:39:00,85.0,-99.9,30.14,South,191,5.0,10.0,-999,-99.99,,,-99.99,,2013-07-15 19:39:00,
2013-07-15 16:07:00,84.0,-99.9,30.14,SW,229,4.0,8.0,-999,-99.99,,,-99.99,,2013-07-15 20:07:00,
2013-07-15 17:03:00,84.0,-99.9,30.13,SW,226,7.0,9.0,-999,-99.99,,,-99.99,,2013-07-15 21:03:00,
2013-07-15 17:40:00,84.0,-99.9,30.12,SW,228,4.0,8.0,-999,-99.99,,,-99.99,,2013-07-15 21:40:00,
2013-07-15 17:48:00,84.0,-99.9,30.12,SW,224,6.0,9.0,-999,-99.99,,,-99.99,,2013-07-15 21:48:00,
2013-07-15 18:02:00,84.0,-99.9,30.12,SW,224,6.0,9.0,-999,-99.99,,,-99.99,,2013-07-15 22:02:00,
2013-07-15 18:36:00,82.0,-99.9,30.12,SW,230,5.0,10.0,-999,-99.99,,,-99.99,,2013-07-15 22:36:00,
2013-07-15 18:44:00,82.0,-99.9,30.12,SW,228,7.0,8.0,-999,-99.99,,,-99.99,,2013-07-15 22:44:00,
2013-07-15 18:54:00,81.0,-99.9,30.12,WSW,240,6.0,10.0,-999,-99.99,,,-99.99,,2013-07-15 22:54:00,
2013-07-15 19:40:00,79.0,-99.9,30.12,SW,231,4.0,8.0,-999,-99.99,,,-99.99,,2013-07-15 23:40:00,
2013-07-15 19:50:00,79.0,-99.9,30.12,SW,221,4.0,6.0,-999,-99.99,,,-99.99,,2013-07-15 23:50:00,
2013-07-15 20:03:00,78.0,-99.9,30.12,WSW,240,5.0,7.0,-999,-99.99,,,-99.99,,2013-07-16 00:03:00,
2013-07-15 20:16:00,78.0,-99.9,30.12,SW,233,5.0,7.0,-999,-99.99,,,-99.99,,2013-07-16 00:16:00,
2013-07-15 20:34:00,77.0,-99.9,30.12,SW,228,4.0,8.0,-999,-99.99,,,-99.99,,2013-07-16 00:34:00,
2013-07-15 20:51:00,76.0,-99.9,30.12,SW,231,4.0,6.0,-999,-99.99,,,-99.99,,2013-07-16 00:51:00,
2013-07-15 22:07:00,76.0,-99.9,30.13,SW,227,5.0,9.0,-999,-99.99,,,-99.99,,2013-07-16 02:07:00,
2013-07-15 22:35:00,76.0,-99.9,30.13,WSW,240,5.0,7.0,-999,-99.99,,,-99.99,,2013-07-16 02:35:00,
2013-07-15 23:49:00,75.0,-99.9,30.12,WSW,239,5.0,7.0,-999,-99.99,,,-99.99,,2013-07-16 03:49:00,